Time,TemperatureF,DewpointF,PressureIn,WindDirection,WindDirectionDegrees,WindSpeedMPH,WindSpeedGustMPH,Humidity,HourlyPrecipIn,Conditions,Clouds,dailyrainin,SoftwareType,DateUTC
2013-03-29 00:06:00,55.6,49.1,29.96,North,0,0.0,-999.0,79,0.00,,,0.00,open2300 v1.10,2013-03-29 07:06:00,
2013-03-29 00:21:00,55.4,48.9,29.96,North,0,0.0,-999.0,79,0.00,,,0.00,open2300 v1.10,2013-03-29 07:21:00,
2013-03-29 00:36:00,55.0,48.6,29.96,North,0,0.0,-999.0,79,0.00,,,0.00,open2300 v1.10,2013-03-29 07:36:00,
2013-03-29 00:51:00,54.5,48.1,29.96,North,0,0.0,-999.0,79,0.00,,,0.00,open2300 v1.10,2013-03-29 07:51:00,
2013-03-29 01:07:00,54.3,48.0,29.96,North,0,0.0,-999.0,79,0.00,,,0.00,open2300 v1.10,2013-03-29 08:07:00,
2013-03-29 01:21:00,54.1,47.8,29.96,North,0,0.0,-999.0,79,0.00,,,0.00,open2300 v1.10,2013-03-29 08:21:00,
2013-03-29 01:36:00,53.8,47.8,29.96,North,0,0.0,-999.0,80,0.00,,,0.00,open2300 v1.10,2013-03-29 08:36:00,
2013-03-29 01:51:00,53.8,47.8,29.96,North,0,0.0,-999.0,80,0.00,,,0.00,open2300 v1.10,2013-03-29 08:51:00,
2013-03-29 02:07:00,53.8,47.8,29.96,North,0,0.0,-999.0,80,0.00,,,0.00,open2300 v1.10,2013-03-29 09:07:00,
2013-03-29 02:21:00,54.0,48.0,29.96,North,0,0.0,-999.0,80,0.00,,,0.00,open2300 v1.10,2013-03-29 09:21:00,
2013-03-29 02:36:00,53.8,47.8,29.96,North,0,0.0,-999.0,80,0.00,,,0.00,open2300 v1.10,2013-03-29 09:36:00,
2013-03-29 02:51:00,54.0,48.0,29.95,North,0,0.0,-999.0,80,0.00,,,0.00,open2300 v1.10,2013-03-29 09:51:00,
2013-03-29 03:07:00,54.1,48.5,29.95,North,0,0.0,-999.0,81,0.00,,,0.00,open2300 v1.10,2013-03-29 10:07:00,
2013-03-29 03:21:00,54.1,48.5,29.95,North,0,0.0,-999.0,81,0.00,,,0.00,open2300 v1.10,2013-03-29 10:21:00,
2013-03-29 03:36:00,54.1,48.5,29.95,North,0,0.0,-999.0,81,0.00,,,0.00,open2300 v1.10,2013-03-29 10:36:00,
2013-03-29 03:51:00,54.3,48.6,29.95,North,0,0.0,-999.0,81,0.00,,,0.00,open2300 v1.10,2013-03-29 10:51:00,
2013-03-29 04:07:00,54.3,48.6,29.95,North,0,0.0,-999.0,81,0.00,,,0.00,open2300 v1.10,2013-03-29 11:07:00,
2013-03-29 04:21:00,54.1,48.5,29.94,North,0,0.0,-999.0,81,0.00,,,0.00,open2300 v1.10,2013-03-29 11:21:00,
2013-03-29 04:37:00,54.1,48.5,29.95,North,0,0.0,-999.0,81,0.00,,,0.00,open2300 v1.10,2013-03-29 11:37:00,
2013-03-29 04:51:00,53.6,47.7,29.95,North,0,0.0,-999.0,80,0.00,,,0.00,open2300 v1.10,2013-03-29 11:51:00,
2013-03-29 05:07:00,53.2,47.6,29.95,North,0,0.0,-999.0,81,0.00,,,0.00,open2300 v1.10,2013-03-29 12:07:00,
2013-03-29 05:21:00,53.4,47.8,29.94,North,0,0.0,-999.0,81,0.00,,,0.00,open2300 v1.10,2013-03-29 12:21:00,
2013-03-29 05:36:00,53.4,47.8,29.94,North,0,0.0,-999.0,81,0.00,,,0.00,open2300 v1.10,2013-03-29 12:36:00,
2013-03-29 05:51:00,53.4,47.8,29.95,North,0,0.0,-999.0,81,0.00,,,0.00,open2300 v1.10,2013-03-29 12:51:00,
2013-03-29 06:07:00,53.4,48.1,29.96,North,0,0.0,-999.0,82,0.00,,,0.00,open2300 v1.10,2013-03-29 13:07:00,
2013-03-29 06:21:00,53.4,48.1,29.95,North,0,0.0,-999.0,82,0.00,,,0.00,open2300 v1.10,2013-03-29 13:21:00,
2013-03-29 06:36:00,53.4,48.1,29.95,North,0,0.0,-999.0,82,0.00,,,0.00,open2300 v1.10,2013-03-29 13:36:00,
2013-03-29 06:51:00,53.4,48.1,29.96,North,0,0.0,-999.0,82,0.00,,,0.00,open2300 v1.10,2013-03-29 13:51:00,
2013-03-29 07:07:00,53.4,48.1,29.96,North,0,0.0,-999.0,82,0.00,,,0.00,open2300 v1.10,2013-03-29 14:07:00,
2013-03-29 07:21:00,53.4,48.1,29.96,North,0,0.0,-999.0,82,0.00,,,0.00,open2300 v1.10,2013-03-29 14:21:00,
2013-03-29 07:36:00,54.0,48.6,29.96,North,0,0.0,-999.0,82,0.00,,,0.00,open2300 v1.10,2013-03-29 14:36:00,
2013-03-29 07:51:00,54.1,48.8,29.96,North,0,0.0,-999.0,82,0.00,,,0.00,open2300 v1.10,2013-03-29 14:51:00,
2013-03-29 08:06:00,54.5,49.1,29.96,North,0,0.0,-999.0,82,0.00,,,0.00,open2300 v1.10,2013-03-29 15:06:00,
2013-03-29 08:21:00,54.9,49.4,29.96,North,0,0.0,-999.0,82,0.00,,,0.00,open2300 v1.10,2013-03-29 15:21:00,
2013-03-29 08:36:00,55.0,49.6,29.96,North,0,0.0,-999.0,82,0.00,,,0.00,open2300 v1.10,2013-03-29 15:36:00,
2013-03-29 08:51:00,55.2,49.8,29.96,North,0,0.0,-999.0,82,0.00,,,0.00,open2300 v1.10,2013-03-29 15:51:00,
2013-03-29 09:06:00,55.8,50.3,29.96,North,0,0.0,-999.0,82,0.00,,,0.00,open2300 v1.10,2013-03-29 16:06:00,
2013-03-29 09:21:00,55.9,50.5,29.96,North,0,0.0,-999.0,82,0.00,,,0.00,open2300 v1.10,2013-03-29 16:21:00,
2013-03-29 09:36:00,56.1,50.7,29.96,North,0,0.0,-999.0,82,0.00,,,0.00,open2300 v1.10,2013-03-29 16:36:00,
2013-03-29 09:51:00,56.3,50.8,29.96,North,0,0.0,-999.0,82,0.00,,,0.00,open2300 v1.10,2013-03-29 16:51:00,
2013-03-29 10:06:00,56.5,51.0,29.96,North,0,0.0,-999.0,82,0.00,,,0.00,open2300 v1.10,2013-03-29 17:06:00,
2013-03-29 10:21:00,56.5,51.0,29.96,North,0,0.0,-999.0,82,0.00,,,0.00,open2300 v1.10,2013-03-29 17:21:00,
2013-03-29 10:36:00,57.0,51.5,29.96,North,0,0.0,-999.0,82,0.00,,,0.00,open2300 v1.10,2013-03-29 17:36:00,
2013-03-29 10:51:00,57.7,51.9,29.95,North,0,0.0,-999.0,81,0.00,,,0.00,open2300 v1.10,2013-03-29 17:51:00,
2013-03-29 11:06:00,58.5,52.7,29.95,North,0,0.0,-999.0,81,0.00,,,0.00,open2300 v1.10,2013-03-29 18:06:00,
2013-03-29 11:21:00,58.8,53.0,29.96,North,0,0.0,-999.0,81,0.00,,,0.00,open2300 v1.10,2013-03-29 18:21:00,
2013-03-29 11:36:00,59.7,53.6,29.95,North,0,0.0,-999.0,80,0.00,,,0.00,open2300 v1.10,2013-03-29 18:36:00,
2013-03-29 11:51:00,60.4,54.3,29.95,North,0,0.0,-999.0,80,0.00,,,0.00,open2300 v1.10,2013-03-29 18:51:00,
2013-03-29 12:06:00,61.0,54.8,29.95,North,0,0.0,-999.0,80,0.00,,,0.00,open2300 v1.10,2013-03-29 19:06:00,
2013-03-29 12:21:00,61.7,55.1,29.95,North,0,0.0,-999.0,79,0.00,,,0.00,open2300 v1.10,2013-03-29 19:21:00,
2013-03-29 12:36:00,62.4,55.4,29.95,North,0,0.0,-999.0,78,0.00,,,0.00,open2300 v1.10,2013-03-29 19:36:00,
2013-03-29 12:51:00,63.1,56.1,29.95,North,0,0.0,-999.0,78,0.00,,,0.00,open2300 v1.10,2013-03-29 19:51:00,
2013-03-29 13:06:00,64.2,56.8,29.94,North,0,0.0,-999.0,77,0.00,,,0.00,open2300 v1.10,2013-03-29 20:06:00,
2013-03-29 13:21:00,65.1,57.3,29.94,North,0,0.0,-999.0,76,0.00,,,0.00,open2300 v1.10,2013-03-29 20:21:00,
2013-03-29 13:36:00,66.6,58.0,29.94,North,0,0.0,-999.0,74,0.00,,,0.00,open2300 v1.10,2013-03-29 20:36:00,
2013-03-29 13:51:00,67.8,58.9,29.94,North,0,0.0,-999.0,73,0.00,,,0.00,open2300 v1.10,2013-03-29 20:51:00,
2013-03-29 14:06:00,68.7,59.0,29.92,North,0,0.0,-999.0,71,0.00,,,0.00,open2300 v1.10,2013-03-29 21:06:00,
2013-03-29 14:21:00,69.1,58.5,29.92,North,0,0.0,-999.0,69,0.00,,,0.00,open2300 v1.10,2013-03-29 21:21:00,
2013-03-29 14:36:00,69.6,57.3,29.92,North,0,0.0,-999.0,65,0.00,,,0.00,open2300 v1.10,2013-03-29 21:36:00,
2013-03-29 14:51:00,69.4,56.7,29.92,North,0,0.0,-999.0,64,0.00,,,0.00,open2300 v1.10,2013-03-29 21:51:00,
2013-03-29 15:06:00,68.4,54.8,29.92,North,0,0.0,-999.0,62,0.00,,,0.00,open2300 v1.10,2013-03-29 22:06:00,
2013-03-29 15:21:00,66.7,53.3,29.92,North,0,0.0,-999.0,62,0.00,,,0.00,open2300 v1.10,2013-03-29 22:21:00,
2013-03-29 15:36:00,66.2,53.2,29.92,North,0,0.0,-999.0,63,0.00,,,0.00,open2300 v1.10,2013-03-29 22:36:00,
2013-03-29 15:51:00,65.5,52.5,29.92,North,0,0.0,-999.0,63,0.00,,,0.00,open2300 v1.10,2013-03-29 22:51:00,
2013-03-29 16:06:00,63.7,51.2,29.92,North,0,0.0,-999.0,64,0.00,,,0.00,open2300 v1.10,2013-03-29 23:06:00,
2013-03-29 16:21:00,62.8,50.8,29.91,North,0,0.0,-999.0,65,0.00,,,0.00,open2300 v1.10,2013-03-29 23:21:00,
2013-03-29 16:36:00,62.4,50.9,29.91,North,0,0.0,-999.0,66,0.00,,,0.00,open2300 v1.10,2013-03-29 23:36:00,
2013-03-29 16:51:00,62.8,51.6,29.91,North,0,0.0,-999.0,67,0.00,,,0.00,open2300 v1.10,2013-03-29 23:51:00,
2013-03-29 17:06:00,62.4,51.3,29.91,North,0,0.0,-999.0,67,0.00,,,0.00,open2300 v1.10,2013-03-30 00:06:00,
2013-03-29 17:21:00,62.1,51.0,29.91,North,0,0.0,-999.0,67,0.00,,,0.00,open2300 v1.10,2013-03-30 00:21:00,
2013-03-29 17:38:00,61.2,50.6,29.91,North,0,0.0,-999.0,68,0.00,,,0.00,open2300 v1.10,2013-03-30 00:38:00,
2013-03-29 17:51:00,60.4,49.9,29.91,North,0,0.0,-999.0,68,0.00,,,0.00,open2300 v1.10,2013-03-30 00:51:00,
2013-03-29 18:06:00,59.4,49.2,29.91,North,0,0.0,-999.0,69,0.00,,,0.00,open2300 v1.10,2013-03-30 01:06:00,
2013-03-29 18:21:00,59.2,49.5,29.91,North,0,0.0,-999.0,70,0.00,,,0.00,open2300 v1.10,2013-03-30 01:21:00,
2013-03-29 18:36:00,59.4,49.6,29.91,North,0,0.0,-999.0,70,0.00,,,0.00,open2300 v1.10,2013-03-30 01:36:00,
2013-03-29 18:51:00,58.8,49.1,29.90,North,0,0.0,-999.0,70,0.00,,,0.00,open2300 v1.10,2013-03-30 01:51:00,
2013-03-29 19:06:00,58.3,48.9,29.90,North,0,0.0,-999.0,71,0.00,,,0.00,open2300 v1.10,2013-03-30 02:06:00,
2013-03-29 19:21:00,58.3,48.9,29.90,North,0,0.0,-999.0,71,0.00,,,0.00,open2300 v1.10,2013-03-30 02:21:00,
2013-03-29 19:36:00,57.7,48.4,29.90,North,0,0.0,-999.0,71,0.00,,,0.00,open2300 v1.10,2013-03-30 02:36:00,
2013-03-29 19:51:00,57.4,48.0,29.90,North,0,0.0,-999.0,71,0.00,,,0.00,open2300 v1.10,2013-03-30 02:51:00,
2013-03-29 20:06:00,56.8,47.9,29.91,North,0,0.0,-999.0,72,0.00,,,0.00,open2300 v1.10,2013-03-30 03:06:00,
2013-03-29 20:21:00,55.9,47.4,29.91,North,0,0.0,-999.0,73,0.00,,,0.00,open2300 v1.10,2013-03-30 03:21:00,
2013-03-29 20:36:00,55.8,47.2,29.90,North,0,0.0,-999.0,73,0.00,,,0.00,open2300 v1.10,2013-03-30 03:36:00,
2013-03-29 20:51:00,55.2,46.7,29.91,North,0,0.0,-999.0,73,0.00,,,0.00,open2300 v1.10,2013-03-30 03:51:00,
2013-03-29 21:07:00,55.2,47.0,29.92,North,0,0.0,-999.0,74,0.00,,,0.00,open2300 v1.10,2013-03-30 04:07:00,
2013-03-29 21:21:00,55.2,47.0,29.93,North,0,0.0,-999.0,74,0.00,,,0.00,open2300 v1.10,2013-03-30 04:21:00,
2013-03-29 21:36:00,55.2,47.4,29.93,North,0,0.0,-999.0,75,0.00,,,0.00,open2300 v1.10,2013-03-30 04:36:00,
2013-03-29 21:51:00,54.9,47.4,29.93,North,0,0.0,-999.0,76,0.00,,,0.00,open2300 v1.10,2013-03-30 04:51:00,
2013-03-29 22:06:00,54.3,47.2,29.92,North,0,0.0,-999.0,77,0.00,,,0.00,open2300 v1.10,2013-03-30 05:06:00,
2013-03-29 22:21:00,54.1,47.1,29.94,North,0,0.0,-999.0,77,0.00,,,0.00,open2300 v1.10,2013-03-30 05:21:00,
2013-03-29 22:36:00,54.3,47.2,29.93,North,0,0.0,-999.0,77,0.00,,,0.00,open2300 v1.10,2013-03-30 05:36:00,
2013-03-29 22:51:00,54.5,47.4,29.94,North,0,0.0,-999.0,77,0.00,,,0.00,open2300 v1.10,2013-03-30 05:51:00,
2013-03-29 23:06:00,54.9,47.8,29.93,North,0,0.0,-999.0,77,0.00,,,0.00,open2300 v1.10,2013-03-30 06:06:00,
2013-03-29 23:21:00,54.7,47.6,29.93,North,0,0.0,-999.0,77,0.00,,,0.00,open2300 v1.10,2013-03-30 06:21:00,
2013-03-29 23:36:00,54.5,47.4,29.94,North,0,0.0,-999.0,77,0.00,,,0.00,open2300 v1.10,2013-03-30 06:36:00,
2013-03-29 23:51:00,54.3,47.6,29.93,North,0,0.0,-999.0,78,0.00,,,0.00,open2300 v1.10,2013-03-30 06:51:00,